Date,TemperatureHighF,TemperatureAvgF,TemperatureLowF,DewpointHighF,DewpointAvgF,DewpointLowF,HumidityHigh,HumidityAvg,HumidityLow,PressureMaxIn,PressureMinIn,WindSpeedMaxMPH,WindSpeedAvgMPH,GustSpeedMaxMPH,PrecipitationSumIn
2013-1-1,54.5,40.3,29.7,34.8,28.2,24.3,81,63,40,30.23,30.07,6,3,8,0.00
2013-1-2,60.7,45.1,32.5,33.0,28.4,24.7,73,53,33,30.10,29.96,7,4,9,0.00
2013-1-3,61.1,46.6,38.6,31.5,27.2,22.2,66,47,31,30.15,29.98,9,5,13,0.00
2013-1-4,59.8,44.8,33.7,33.7,29.3,26.2,75,55,35,30.27,30.14,5,3,8,0.00
2013-1-5,64.6,45.7,31.7,33.3,28.1,23.1,71,52,29,30.32,30.19,7,3,8,0.00
2013-1-6,64.4,47.2,36.4,30.1,25.7,21.6,58,44,24,30.19,29.93,6,3,10,0.00
2013-1-7,56.7,45.0,34.5,30.9,27.6,23.5,64,51,36,29.94,29.80,8,4,12,0.00
2013-1-8,62.9,46.3,34.0,33.1,27.9,24.3,69,50,28,30.09,29.87,7,3,10,0.00
2013-1-9,72.4,51.2,35.4,33.0,25.7,21.9,64,41,16,30.19,30.03,7,3,10,0.00
2013-1-10,65.0,52.1,37.5,35.8,26.1,22.6,57,38,24,30.04,29.77,18,5,21,0.00
2013-1-11,48.4,40.1,33.1,32.2,24.0,13.1,81,55,28,30.07,29.90,16,4,19,0.03
2013-1-12,47.4,35.6,26.1,21.2,14.2,9.4,62,43,23,30.07,29.93,8,2,11,0.00
2013-1-13,47.7,34.7,24.1,19.3,12.8,9.4,59,42,24,30.09,29.96,7,2,10,0.00
2013-1-14,43.8,32.8,24.8,16.7,10.4,5.9,55,40,24,30.19,30.00,10,2,14,0.00
2013-1-15,47.3,33.4,21.5,10.4,6.9,3.9,58,35,18,30.32,30.17,14,4,18,0.00
2013-1-16,60.3,41.9,28.0,18.5,12.3,5.2,42,30,19,30.34,30.19,6,2,8,0.00
2013-1-17,73.4,51.1,35.5,26.5,19.7,13.3,41,30,16,30.24,30.12,7,4,9,0.00
2013-1-18,75.7,53.8,39.0,30.9,24.3,19.5,46,33,17,30.23,30.10,6,4,8,0.00
2013-1-19,78.3,55.6,39.3,32.6,25.0,21.1,48,32,18,30.24,30.13,8,4,10,0.00
2013-1-20,77.9,58.0,43.9,37.1,28.0,21.3,41,32,22,30.17,30.03,6,4,9,0.00
2013-1-21,79.2,59.5,45.5,38.8,31.6,26.7,47,35,22,30.12,30.02,8,3,10,0.00
2013-1-22,80.9,61.4,47.1,40.6,33.0,28.1,49,35,20,30.20,30.10,6,4,8,0.00
2013-1-23,81.5,61.1,46.9,40.5,32.6,26.8,47,34,22,30.23,30.12,6,3,7,0.00
2013-1-24,61.1,57.4,53.9,53.7,42.9,31.3,83,59,38,30.27,30.17,5,2,7,0.08
2013-1-25,75.5,61.6,52.0,52.8,47.8,45.2,77,62,39,30.21,30.00,6,2,9,0.01
2013-1-26,60.6,57.1,53.2,58.2,52.8,48.0,96,85,64,30.02,29.91,11,3,14,1.09
2013-1-27,64.8,57.1,49.5,56.4,50.3,47.5,97,79,59,30.04,29.93,8,3,10,0.01
2013-1-28,54.0,49.8,43.8,48.3,39.9,30.4,83,69,52,30.00,29.91,11,5,16,0.00
2013-1-29,52.7,43.4,34.8,33.8,28.0,21.6,83,56,30,30.19,30.00,12,4,14,0.00
2013-1-30,61.7,46.1,33.0,34.0,25.7,21.1,74,47,23,30.34,30.19,8,3,11,0.00
2013-1-31,60.0,47.1,35.3,35.7,30.6,24.7,70,53,34,30.26,30.10,6,3,8,0.00
2013-2-1,71.0,52.7,37.0,37.4,32.3,27.1,70,48,25,30.22,30.13,7,4,9,0.00
2013-2-2,76.8,55.6,39.0,40.7,34.9,29.4,70,48,23,30.27,30.13,5,2,6,0.00
2013-2-3,68.0,58.2,51.3,39.5,35.6,32.5,56,43,28,30.15,29.74,7,3,9,0.00
2013-2-4,70.5,56.2,45.8,42.0,39.1,36.0,70,54,33,30.05,29.95,7,3,9,0.00
2013-2-5,74.0,57.7,43.4,46.0,40.9,36.9,79,55,32,30.03,29.93,9,3,11,0.00
2013-2-6,70.1,56.7,45.7,46.0,40.2,36.6,77,55,32,30.05,29.91,9,3,14,0.00
2013-2-7,72.1,56.6,43.1,44.4,39.3,34.7,79,54,29,30.13,29.96,5,3,7,0.00
2013-2-8,67.8,56.0,46.0,37.1,31.1,25.2,67,40,20,29.96,29.77,11,5,15,0.00
2013-2-9,50.9,44.0,36.2,37.3,30.4,25.5,87,60,40,30.02,29.78,11,4,16,0.24
2013-2-10,59.1,44.5,32.0,34.3,27.5,23.7,77,53,29,30.02,29.91,6,2,9,0.00
2013-2-11,39.3,36.0,33.4,34.6,29.2,24.7,91,76,59,30.13,29.93,6,2,9,0.00
2013-2-12,52.9,40.9,30.8,39.8,31.9,27.0,95,72,44,30.26,30.14,8,3,10,0.00
2013-2-13,61.4,46.1,32.3,31.5,27.1,22.9,71,49,27,30.19,30.07,7,4,10,0.00
2013-2-14,67.0,50.0,33.7,33.8,28.9,24.8,71,46,25,30.16,30.01,7,3,11,0.00
2013-2-15,72.6,56.1,44.2,34.5,27.7,18.9,52,35,19,30.26,30.11,9,4,11,0.00
2013-2-16,80.4,58.5,39.2,29.8,22.3,17.8,45,26,13,30.27,30.01,7,3,9,0.00
2013-2-17,73.0,56.0,38.9,29.2,21.9,18.1,47,28,13,30.01,29.85,10,4,13,0.00
2013-2-18,70.5,55.1,41.2,32.4,25.3,21.9,50,33,16,30.06,29.91,6,3,7,0.00
2013-2-19,70.7,56.4,43.1,30.8,23.7,17.9,47,30,15,29.93,29.69,14,6,19,0.00
2013-2-20,50.7,40.5,32.6,37.0,32.4,27.9,92,74,46,29.92,29.66,14,5,21,0.26
2013-2-21,51.4,40.9,31.9,42.8,35.0,30.4,96,80,57,30.02,29.91,6,2,8,0.37
2013-2-22,56.3,45.2,34.3,42.1,32.9,26.1,88,63,39,30.14,29.96,8,3,11,0.00
2013-2-23,66.4,48.5,33.5,35.8,29.0,25.8,75,50,24,30.13,29.83,7,2,9,0.00
2013-2-24,52.1,44.1,39.0,31.5,21.5,12.1,69,43,21,30.07,29.76,16,7,23,0.00
2013-2-25,60.0,46.5,32.0,26.6,20.4,14.8,56,36,24,30.20,30.02,7,4,12,0.00
2013-2-26,63.6,48.3,31.0,28.3,22.1,18.5,61,37,19,30.07,29.95,11,4,14,0.00
2013-2-27,66.7,52.1,41.6,20.2,14.7,9.3,35,22,14,30.21,30.07,10,6,14,0.00
2013-2-28,71.8,53.5,35.8,26.7,19.1,13.2,43,26,17,30.31,30.18,8,4,10,0.00
2013-3-1,79.2,58.5,39.8,32.1,24.3,12.8,40,27,17,30.36,30.21,7,3,11,0.00
2013-3-2,86.2,62.9,43.5,38.0,32.1,27.1,53,33,17,30.32,30.14,6,3,9,0.00
2013-3-3,78.3,63.6,45.8,38.8,30.9,26.2,54,31,16,30.15,29.94,8,3,11,0.00
2013-3-4,73.2,63.9,54.9,34.8,30.9,24.3,41,29,23,30.11,29.89,12,5,16,0.00
2013-3-5,78.1,61.5,45.0,40.1,34.3,31.0,60,38,20,30.13,30.00,9,3,12,0.00
2013-3-6,82.7,65.5,51.3,41.9,35.5,33.2,53,34,18,30.06,29.91,7,3,9,0.00
2013-3-7,82.5,63.6,46.8,38.1,32.5,28.9,54,33,16,29.99,29.89,11,4,15,0.00
2013-3-8,63.4,55.7,42.0,47.0,38.6,29.8,81,54,30,29.97,29.77,16,6,21,0.03
2013-3-9,53.1,46.1,41.0,41.1,37.9,35.6,89,73,57,30.08,29.96,8,3,11,0.06
2013-3-10,69.0,54.2,43.2,42.6,36.8,33.0,76,54,27,30.16,30.07,10,4,13,0.00
2013-3-11,74.5,56.8,40.1,41.1,35.3,31.9,72,47,23,30.19,30.03,9,4,12,0.00
2013-3-12,82.7,62.1,43.7,41.7,37.8,32.5,65,43,21,30.12,30.02,7,4,10,0.00
2013-3-13,89.8,68.2,48.7,44.3,37.6,32.5,58,36,16,30.18,30.06,8,4,10,0.00
2013-3-14,95.8,72.3,53.2,41.2,35.2,30.5,43,27,12,30.18,30.05,7,4,8,0.00
2013-3-15,91.5,72.7,52.4,43.5,34.8,30.8,47,27,11,30.09,29.94,12,4,16,0.00
2013-3-16,88.3,70.7,53.1,37.0,31.6,25.8,41,25,11,29.96,29.75,12,4,17,0.00
2013-3-17,82.3,67.5,52.9,35.4,30.7,27.3,38,26,14,29.96,29.83,13,5,19,0.00
2013-3-18,83.9,66.4,49.8,39.8,32.3,29.2,49,29,15,30.03,29.92,9,3,12,0.00
2013-3-19,79.2,66.3,53.6,41.8,34.4,30.6,50,31,19,30.08,29.95,10,4,15,0.00
2013-3-20,81.7,66.8,52.0,40.1,35.9,32.2,51,33,19,30.08,29.91,6,3,9,0.00
2013-3-21,76.5,66.2,56.3,42.1,36.8,33.7,51,34,22,29.90,29.75,7,3,10,0.00
2013-3-22,79.6,66.8,52.6,41.8,35.6,31.9,54,32,19,29.84,29.70,11,4,20,0.00
2013-3-23,73.7,62.3,50.1,41.2,29.1,16.2,58,32,12,30.00,29.82,13,4,16,0.00
2013-3-24,76.0,61.1,44.8,25.7,18.7,13.5,35,20,12,30.02,29.89,10,4,12,0.00
2013-3-25,80.8,64.7,47.2,30.5,24.2,17.9,35,22,13,30.03,29.91,10,4,13,0.00
2013-3-26,85.7,68.5,51.5,35.2,27.4,23.7,39,23,11,30.00,29.85,8,4,12,0.00
2013-3-27,85.2,68.8,52.6,34.2,28.0,21.6,38,22,14,30.03,29.91,9,4,12,0.00
2013-3-28,84.1,68.7,52.6,38.7,29.2,22.7,38,23,13,30.10,29.99,9,3,13,0.00
2013-3-29,85.2,70.5,55.8,40.2,30.0,24.2,38,23,13,30.15,30.03,8,3,12,0.00
2013-3-30,79.5,68.5,57.4,36.4,31.2,24.5,37,25,15,30.11,29.97,7,3,12,0.00
2013-3-31,86.6,69.5,52.9,38.6,33.4,30.1,45,27,15,30.09,29.93,9,3,13,0.00
2013-4-1,81.9,68.7,54.3,41.5,34.5,27.7,44,29,19,30.05,29.92,8,4,12,0.00
2013-4-2,77.0,65.1,50.8,34.1,28.5,25.0,40,25,16,30.00,29.89,10,4,15,0.00
2013-4-3,82.5,66.9,50.8,37.3,32.6,28.2,46,29,17,30.08,29.96,10,4,14,0.00
2013-4-4,88.7,70.7,52.0,39.6,32.9,27.0,49,27,12,30.11,29.94,7,3,11,0.00
2013-4-5,86.8,72.1,58.4,39.0,34.9,28.8,41,26,16,30.02,29.89,11,4,14,0.00
2013-4-6,85.4,70.2,54.7,40.5,35.3,29.8,42,28,16,30.03,29.85,9,3,12,0.00
2013-4-7,85.9,69.8,55.7,43.6,37.2,33.8,49,31,17,29.94,29.77,8,3,12,0.00
2013-4-8,81.2,68.6,46.5,41.6,38.0,30.9,80,34,19,29.79,29.41,20,9,25,0.16
2013-4-9,64.3,55.0,46.0,43.0,35.0,26.0,87,51,25,29.89,29.61,10,5,16,0.01
2013-4-10,67.8,56.6,43.4,35.9,31.7,29.0,63,40,23,30.01,29.89,10,4,13,0.00
2013-4-11,78.4,62.8,45.0,38.7,33.0,28.9,63,35,18,30.01,29.79,8,3,13,0.00
2013-4-12,73.9,64.1,51.9,39.0,32.2,28.7,44,30,20,29.86,29.77,8,3,11,0.00
2013-4-13,84.9,69.6,51.3,37.7,32.0,28.4,49,26,14,29.89,29.75,10,4,13,0.00
2013-4-14,85.8,71.2,55.5,43.6,35.4,31.2,40,27,16,29.83,29.68,10,6,14,0.00
2013-4-15,86.9,73.5,61.8,40.3,36.9,34.1,40,27,16,29.82,29.72,12,8,16,0.00
2013-4-16,84.3,71.3,59.9,40.4,35.5,29.7,40,27,17,29.85,29.72,12,8,17,0.00
2013-4-17,67.2,59.1,53.9,42.0,28.2,16.2,61,32,18,30.03,29.79,13,6,18,0.00
2013-4-18,73.3,58.6,45.5,26.4,21.0,16.0,36,24,14,30.16,30.00,10,4,15,0.00
2013-4-19,82.3,63.9,49.0,26.8,18.6,13.0,27,17,10,30.18,29.97,9,4,11,0.00
2013-4-20,84.3,67.3,47.6,30.0,23.4,14.9,32,19,12,30.01,29.91,10,4,16,0.00
2013-4-21,89.7,72.2,53.2,33.1,28.5,23.3,37,20,12,30.10,29.95,7,3,12,0.00
2013-4-22,90.8,73.8,55.9,35.7,29.6,25.2,39,20,11,30.03,29.81,9,4,14,0.00
2013-4-23,87.3,75.0,63.9,37.0,30.7,24.0,28,19,13,29.93,29.82,10,4,16,0.00
2013-4-24,88.3,74.2,58.5,37.2,33.3,30.1,40,23,12,29.97,29.87,9,4,15,0.00
2013-4-25,82.1,72.1,61.0,36.8,32.8,25.9,33,23,15,30.08,29.91,16,6,20,0.00
2013-4-26,85.7,69.9,53.2,39.6,34.8,30.7,48,29,16,30.16,30.03,9,4,12,0.00
2013-4-27,89.8,74.7,57.4,39.8,33.0,28.2,37,22,13,30.12,29.93,8,4,15,0.00
2013-4-28,93.6,77.8,59.1,38.1,30.6,24.5,34,18,11,29.98,29.79,8,4,15,0.00
2013-4-29,95.4,78.9,59.3,37.3,30.0,22.4,36,17,10,29.89,29.70,8,4,12,0.00
2013-4-30,94.7,79.0,63.7,36.9,31.8,27.1,32,18,11,29.87,29.72,10,4,15,0.00
2013-5-1,89.7,76.4,63.8,35.7,31.6,28.0,28,19,11,30.05,29.86,9,4,12,0.00
2013-5-2,91.4,77.1,65.5,34.9,27.0,16.1,24,15,11,30.18,30.00,16,7,20,0.00
2013-5-3,87.0,72.4,56.4,33.3,28.7,24.3,35,20,12,30.08,29.82,11,4,14,0.00
2013-5-4,90.8,76.5,58.2,35.4,30.4,24.4,35,18,11,29.88,29.72,10,5,16,0.00
2013-5-5,87.5,76.9,67.9,40.1,33.8,26.8,30,20,15,29.98,29.79,13,8,18,0.00
2013-5-6,83.3,71.1,61.1,49.9,42.8,33.8,64,37,22,30.04,29.91,10,5,14,0.00
2013-5-7,83.0,69.9,60.3,45.7,39.4,31.8,49,34,16,30.04,29.89,12,5,14,0.00
2013-5-8,77.5,67.4,56.0,46.5,41.4,38.6,58,39,26,30.08,29.94,7,3,11,0.00
2013-5-9,81.7,69.8,56.4,44.9,39.2,33.3,59,34,18,30.05,29.93,9,3,16,0.00
2013-5-10,85.4,71.1,56.6,43.7,39.0,34.4,52,31,21,30.10,29.98,9,3,14,0.00
2013-5-11,88.4,74.9,59.3,45.3,39.8,36.2,46,29,18,30.15,30.03,9,4,13,0.00
2013-5-12,92.8,78.8,64.4,44.0,39.9,36.3,39,25,16,30.20,30.00,10,4,18,0.00
2013-5-13,95.9,80.2,63.2,43.7,37.3,29.1,38,22,13,30.13,29.95,8,3,27,0.00
2013-5-14,95.1,83.6,71.0,43.5,38.5,28.7,32,20,14,30.06,29.89,10,4,14,0.00
2013-5-15,95.6,81.3,66.0,44.1,39.8,36.4,42,23,14,30.06,29.89,12,5,16,0.00
2013-5-16,96.5,80.5,63.4,41.1,37.4,32.5,42,22,12,30.00,29.79,10,4,13,0.00
2013-5-17,93.2,79.7,67.7,40.1,35.5,32.5,32,20,12,29.97,29.83,10,5,16,0.00
2013-5-18,89.5,77.1,66.1,37.5,34.5,31.2,30,21,14,30.01,29.87,10,4,13,0.00
2013-5-19,89.9,76.0,61.9,46.2,40.8,36.3,48,29,17,29.99,29.82,10,4,14,0.00
2013-5-20,89.5,76.9,63.3,45.2,37.4,28.6,45,25,14,29.97,29.84,12,5,16,0.00
2013-5-21,93.0,78.0,60.7,36.6,31.8,27.1,36,19,11,29.97,29.81,8,3,12,0.00
2013-5-22,97.4,81.1,63.2,40.6,34.5,28.0,34,19,12,29.88,29.70,9,4,12,0.00
2013-5-23,96.2,82.6,70.8,41.4,36.8,30.1,28,19,13,29.92,29.79,9,5,13,0.00
2013-5-24,96.0,80.7,65.4,46.8,36.7,31.5,37,21,10,30.00,29.86,9,4,15,0.00
2013-5-25,95.6,80.2,64.1,45.2,36.6,30.5,44,22,10,30.01,29.88,9,4,15,0.00
2013-5-26,94.6,77.7,61.6,37.9,31.4,22.8,34,19,9,30.03,29.91,10,4,14,0.00
2013-5-27,96.3,78.3,61.7,35.9,31.2,25.9,30,18,9,29.97,29.76,10,4,14,0.00
2013-5-28,91.4,77.7,61.5,38.8,35.1,31.7,36,22,12,29.83,29.65,11,5,15,0.00
2013-5-29,92.1,78.4,63.0,50.8,41.3,36.9,43,27,16,29.83,29.69,11,4,15,0.00
2013-5-30,95.1,81.6,66.4,53.6,47.1,40.2,52,31,17,29.92,29.79,8,4,12,0.00
2013-5-31,96.0,82.7,70.3,59.1,50.3,39.4,58,34,18,29.97,29.81,8,4,12,0.00
2013-6-1,103.5,86.6,71.3,51.5,45.0,39.6,40,24,12,29.91,29.75,10,4,11,0.00
2013-6-2,104.6,88.3,72.8,49.2,44.5,38.9,39,22,13,29.89,29.70,10,4,15,0.00
2013-6-3,101.1,87.8,76.2,44.9,39.3,34.1,31,18,10,29.92,29.77,10,5,15,0.00
2013-6-4,99.7,85.4,70.4,49.3,42.1,36.1,34,22,13,29.95,29.81,10,4,14,0.00
2013-6-5,98.7,83.7,66.9,42.4,37.1,32.2,35,19,11,29.99,29.81,10,4,13,0.00
2013-6-6,101.9,85.6,68.1,43.7,38.4,30.7,31,19,12,29.91,29.75,8,4,11,0.00
2013-6-7,104.9,87.6,71.6,44.8,39.5,35.3,30,18,11,29.89,29.70,9,4,13,0.00
2013-6-8,102.9,88.1,72.6,43.9,38.4,35.6,33,18,10,29.93,29.79,10,4,16,0.00
2013-6-9,103.7,87.2,70.3,45.5,38.7,32.6,36,19,10,30.00,29.85,9,4,14,0.00
2013-6-10,105.5,89.0,70.5,45.2,39.1,32.6,30,18,9,30.00,29.83,9,4,14,0.00
2013-6-11,104.6,89.3,71.6,43.6,38.1,32.1,29,17,9,29.99,29.86,10,4,14,0.00
2013-6-12,104.8,89.9,73.3,44.9,41.6,37.6,34,18,12,30.03,29.87,12,5,14,0.00
2013-6-13,101.9,88.6,74.9,51.4,48.0,41.7,41,25,16,30.02,29.83,9,4,14,0.00
2013-6-14,100.7,87.6,74.9,57.7,52.3,44.3,49,30,18,29.97,29.78,10,4,13,0.00
2013-6-15,102.5,88.5,74.3,59.3,52.4,46.9,44,29,19,29.99,29.83,10,4,14,0.00
2013-6-16,104.5,88.6,74.2,55.1,47.4,37.5,39,25,13,30.02,29.86,12,4,15,0.00
2013-6-17,102.7,87.1,70.5,44.9,40.3,34.2,33,19,12,30.02,29.84,8,3,12,0.00
2013-6-18,105.3,87.1,71.0,42.0,35.0,23.7,31,17,7,29.96,29.77,9,4,13,0.00
2013-6-19,103.6,86.8,69.0,40.3,34.0,24.5,28,15,10,29.88,29.71,11,4,18,0.00
2013-6-20,102.7,86.6,69.8,40.6,36.7,32.0,31,18,9,29.93,29.77,10,4,14,0.00
2013-6-21,101.5,86.6,70.5,46.6,39.2,33.6,38,19,10,29.96,29.80,10,4,14,0.00
2013-6-22,101.0,86.2,69.2,42.9,37.5,32.4,37,18,9,29.95,29.79,12,5,16,0.00
2013-6-23,102.0,86.0,73.4,44.3,38.1,32.7,25,18,10,29.92,29.74,12,5,17,0.00
2013-6-24,101.2,86.1,73.1,44.4,39.3,30.9,28,19,10,29.95,29.82,12,5,16,0.00
2013-6-25,100.9,85.8,73.4,45.0,39.1,32.0,35,20,10,30.04,29.89,8,3,11,0.00
2013-6-26,102.6,85.5,67.2,43.8,37.0,32.3,33,18,10,30.11,29.97,7,4,10,0.00
2013-6-27,102.6,88.5,72.6,48.4,42.3,33.4,36,20,13,30.15,29.96,11,5,15,0.00
2013-6-28,106.2,92.5,79.3,51.4,46.0,38.6,35,20,13,30.04,29.86,9,4,12,0.00
2013-6-29,107.3,94.3,79.5,52.9,48.7,42.1,33,21,15,29.96,29.80,11,4,15,0.00
2013-6-30,108.8,94.9,83.0,57.7,54.1,49.8,40,25,15,30.03,29.77,17,7,21,0.00
2013-7-1,104.2,88.5,78.5,65.9,58.8,56.2,52,37,20,29.99,29.84,11,3,17,0.00
2013-7-2,99.8,86.9,71.9,65.9,59.5,53.8,69,41,24,30.12,29.89,21,6,26,0.00
2013-7-3,103.0,89.7,74.5,58.4,55.8,51.1,53,33,20,29.98,29.75,9,4,15,0.00
2013-7-4,102.9,91.5,81.8,60.6,57.3,53.2,45,32,20,29.93,29.76,11,5,15,0.00
2013-7-5,95.7,85.4,77.5,65.9,62.3,59.1,63,46,32,29.94,29.80,14,4,16,0.00
2013-7-6,102.0,85.3,73.4,64.6,62.1,58.6,65,47,25,29.89,29.72,13,4,19,0.00
2013-7-7,105.8,87.4,72.4,71.4,62.5,58.0,80,45,21,29.91,29.76,15,4,26,0.00
2013-7-8,99.8,86.9,76.7,66.4,62.5,56.8,66,45,23,30.00,29.87,15,4,18,0.00
2013-7-9,97.0,87.5,78.3,69.6,65.1,59.6,72,48,33,30.14,29.93,11,5,15,0.03
2013-7-10,96.3,81.8,73.6,71.9,68.0,63.0,89,65,34,30.10,29.93,10,4,16,0.45
2013-7-11,89.3,80.3,71.8,71.4,68.2,65.8,92,67,49,30.06,29.91,10,4,14,0.09
2013-7-12,90.4,80.2,71.6,73.0,66.0,61.7,88,62,44,30.06,29.91,13,4,17,0.20
2013-7-13,96.2,84.8,73.5,68.0,64.0,60.3,75,51,31,30.04,29.89,13,4,16,0.04
2013-7-14,99.1,87.1,74.6,67.9,64.5,60.3,77,49,29,30.01,29.84,9,4,13,0.00
2013-7-15,100.9,85.6,76.7,67.1,64.1,61.4,69,50,27,29.94,29.76,10,4,14,0.07
2013-7-16,87.6,80.3,74.8,68.9,65.5,62.2,78,60,46,30.09,29.92,10,4,14,0.00
2013-7-17,98.1,85.4,75.1,68.9,62.8,57.3,76,49,27,30.10,29.93,6,3,8,0.00
2013-7-18,96.2,86.1,74.9,62.3,58.3,55.5,62,39,26,30.04,29.87,8,3,10,0.00
2013-7-19,92.3,83.5,77.4,67.2,62.1,58.6,70,48,35,30.01,29.86,11,3,13,0.00
2013-7-20,89.3,78.0,74.0,69.5,67.1,65.3,81,69,47,29.99,29.83,11,3,16,0.00
2013-7-21,87.6,80.0,72.4,70.7,67.4,64.3,87,66,45,30.02,29.90,9,3,13,0.00
2013-7-22,89.9,80.4,71.8,69.3,65.7,61.7,82,61,41,30.08,29.95,7,3,10,0.00
2013-7-23,95.1,83.3,73.0,66.8,63.2,60.6,73,52,32,30.08,29.90,10,4,13,0.00
2013-7-24,94.8,84.1,77.2,66.6,63.8,61.0,59,50,37,30.03,29.89,7,3,10,0.00
2013-7-25,88.3,79.9,75.3,70.6,68.1,65.3,78,67,50,30.09,29.98,7,2,8,0.00
2013-7-26,92.3,78.5,70.2,71.7,68.7,63.6,89,73,41,30.17,29.78,16,3,21,0.00
2013-7-27,96.6,81.3,71.9,71.1,67.8,64.3,87,65,37,30.10,29.89,12,3,14,0.00
2013-7-28,99.1,85.6,73.0,68.5,60.7,49.5,77,47,23,29.97,29.82,8,3,14,0.00
2013-7-29,99.9,86.6,73.3,56.4,52.9,48.2,50,32,20,30.09,29.94,7,3,11,0.00
2013-7-30,101.1,88.4,76.7,60.2,56.1,53.3,49,34,22,30.19,30.01,10,4,14,0.00
2013-7-31,100.1,88.1,78.1,62.8,57.5,54.2,55,35,23,30.14,29.98,11,4,13,0.00
2013-8-1,90.2,83.7,77.7,64.0,61.4,57.9,59,46,39,30.06,29.95,7,3,9,0.00
2013-8-2,89.3,82.5,76.1,68.2,64.9,61.2,74,55,42,30.05,29.95,8,3,10,0.00
2013-8-3,100.2,86.1,72.8,64.9,60.7,56.1,69,44,25,30.08,29.93,9,3,12,0.00
2013-8-4,97.4,85.7,79.0,65.0,60.4,56.1,57,42,26,30.10,29.95,8,2,11,0.00
2013-8-5,92.2,82.6,72.2,65.3,59.1,56.3,72,45,30,30.09,29.93,14,5,16,0.00
2013-8-6,83.1,75.1,67.7,69.8,63.7,59.0,94,69,47,30.12,30.00,10,4,14,0.00
2013-8-7,94.6,81.0,69.5,64.3,59.0,54.2,73,49,26,30.11,29.96,8,3,11,0.00
2013-8-8,98.1,84.1,70.1,58.4,52.6,44.5,61,36,17,30.04,29.87,8,3,11,0.00
2013-8-9,100.2,85.4,68.3,53.3,48.5,43.7,47,28,19,30.01,29.87,10,3,13,0.00
2013-8-10,98.9,85.5,72.0,50.9,47.0,42.5,44,26,18,30.09,29.93,7,3,10,0.00
2013-8-11,101.2,86.2,71.7,60.4,53.3,41.3,51,32,24,30.06,29.87,7,3,10,0.00
2013-8-12,102.1,87.2,73.0,63.3,54.5,41.4,57,34,16,30.01,29.86,8,4,14,0.00
2013-8-13,101.4,87.3,72.9,51.0,45.0,39.7,43,23,14,30.06,29.89,12,5,15,0.00
2013-8-14,103.2,87.7,73.9,60.0,50.9,41.3,44,29,17,30.04,29.86,11,5,16,0.00
2013-8-15,102.6,88.1,75.9,63.0,59.3,56.0,58,38,23,30.07,29.89,10,4,15,0.00
2013-8-16,103.8,87.4,75.2,65.5,59.8,55.8,68,41,21,30.06,29.89,13,3,18,0.00
2013-8-17,106.4,88.1,73.1,66.5,61.3,56.3,69,44,20,30.05,29.84,13,4,19,0.00
2013-8-18,104.1,88.0,80.2,61.0,57.4,54.5,48,35,20,30.07,29.95,13,5,17,0.00
2013-8-19,101.2,89.2,78.1,61.4,57.1,54.1,51,34,21,30.05,29.88,6,3,9,0.00
2013-8-20,102.0,86.4,78.6,66.7,60.0,56.4,55,41,24,30.04,29.88,14,5,18,0.00
2013-8-21,95.0,84.1,76.0,64.4,60.0,56.6,60,44,28,30.04,29.64,9,3,12,0.00
2013-8-22,100.6,82.0,66.9,66.7,61.2,57.0,87,53,25,30.04,29.85,14,3,18,0.00
2013-8-23,95.7,81.0,70.0,66.4,61.8,58.6,75,53,30,29.99,29.80,14,4,19,0.00
2013-8-24,89.7,81.1,73.2,66.4,61.8,58.7,78,52,39,30.05,29.91,10,4,11,0.00
2013-8-25,90.3,77.7,73.0,70.8,68.0,65.8,83,72,44,30.07,29.96,7,2,10,0.00
2013-8-26,96.9,77.5,67.8,76.3,68.1,62.9,93,75,35,30.05,29.89,11,3,18,0.00
2013-8-27,99.0,82.3,67.3,71.4,63.2,56.4,92,58,26,29.96,29.80,9,3,13,0.00
2013-8-28,94.5,80.5,73.7,72.1,64.9,60.5,78,59,34,30.05,29.86,10,3,16,0.00
2013-8-29,84.9,77.7,71.6,72.4,67.9,65.4,89,72,56,30.18,30.03,7,2,9,0.00
2013-8-30,86.7,79.0,73.4,71.6,68.2,63.7,85,69,52,30.15,30.03,8,3,10,0.00
2013-8-31,93.8,83.5,74.2,69.3,65.3,61.5,76,55,35,30.08,29.93,11,4,13,0.00
2013-9-1,96.8,85.5,72.6,67.6,63.2,59.5,74,48,31,30.02,29.87,10,4,12,0.00
2013-9-2,95.4,83.7,76.7,67.2,63.0,60.6,62,49,32,30.07,29.86,12,4,15,0.00
2013-9-3,98.6,84.2,73.7,65.5,61.3,57.0,65,46,25,30.02,29.91,8,3,11,0.00
2013-9-4,100.7,86.6,71.3,63.7,57.2,51.2,68,39,19,30.06,29.89,9,4,12,0.00
2013-9-5,101.5,87.7,72.3,59.5,54.0,50.1,51,32,19,30.04,29.89,10,4,14,0.00
2013-9-6,98.0,83.0,74.3,66.0,59.1,54.7,63,44,26,30.04,29.89,13,4,17,0.00
2013-9-7,88.0,78.7,71.1,68.1,63.4,60.0,79,60,39,30.07,29.91,8,3,10,0.00
2013-9-8,81.9,75.7,71.3,68.3,65.9,61.6,86,71,56,29.98,29.84,133,4,10,0.00
2013-9-9,83.3,74.8,68.8,71.1,66.3,63.6,92,75,54,29.91,29.77,8,3,11,0.00
2013-9-10,86.3,74.8,64.2,67.8,62.1,57.3,94,67,38,30.00,29.85,8,4,11,0.00
2013-9-11,90.7,78.1,66.3,64.3,59.2,54.4,80,54,31,30.07,29.92,10,4,13,0.00
2013-9-12,95.2,81.2,67.5,62.2,57.1,52.5,71,45,27,29.99,29.79,10,4,17,0.00
2013-9-13,97.7,83.6,70.4,65.6,59.3,51.6,71,45,21,29.88,29.68,6,3,9,0.00
2013-9-14,98.0,85.0,72.3,65.6,59.1,52.1,68,43,23,29.81,29.69,6,3,9,0.00
2013-9-15,98.6,86.1,72.1,63.3,57.8,53.6,63,39,23,29.89,29.76,7,3,10,0.00
2013-9-16,98.9,87.2,74.5,62.8,58.7,55.9,60,38,23,29.93,29.78,8,4,15,0.00
2013-9-17,99.8,88.2,73.6,62.7,57.4,49.1,62,36,22,29.89,29.71,9,4,11,0.00
2013-9-18,99.2,86.2,74.1,55.1,49.8,43.3,46,29,16,29.87,29.70,8,3,12,0.00
2013-9-19,97.2,84.1,69.3,54.1,49.4,43.8,47,30,21,29.88,29.74,8,4,13,0.00
2013-9-20,79.9,73.7,70.7,51.4,46.0,43.2,43,36,29,29.91,29.83,5,2,6,0.00
2013-9-24,78.6,75.2,72.1,45.4,44.3,43.4,35,32,30,29.93,29.91,3,2,4,0.00
2013-9-25,94.5,78.5,63.3,43.9,38.3,29.9,45,25,14,29.92,29.70,10,4,14,0.00
2013-9-26,91.3,80.5,71.3,54.8,41.8,29.5,50,25,19,29.82,29.68,13,7,17,0.00
2013-9-27,78.7,71.6,64.0,56.0,42.9,28.4,55,36,21,30.00,29.81,9,4,14,0.00
2013-9-28,87.6,72.2,56.0,47.0,38.1,28.5,38,28,23,30.11,29.98,8,3,9,0.00
2013-9-29,90.4,74.7,59.8,47.9,41.7,36.3,49,31,20,30.15,30.01,7,3,9,0.00
2013-9-30,90.4,75.8,59.8,46.5,39.4,32.9,49,28,14,30.06,29.91,8,4,11,0.00
2013-10-1,91.2,75.6,58.8,44.0,39.7,32.8,47,28,17,30.05,29.91,6,2,10,0.00
2013-10-2,90.1,75.5,61.8,50.5,45.2,40.9,57,34,21,30.04,29.86,7,3,9,0.00
2013-10-3,90.6,76.0,61.9,56.2,46.6,36.7,59,37,17,29.95,29.75,11,4,14,0.00
2013-10-4,84.4,72.3,60.8,49.0,42.3,28.6,48,34,23,30.05,29.86,8,3,13,0.00
2013-10-5,82.6,70.8,60.4,34.5,26.6,22.7,25,19,12,30.18,30.04,12,7,14,0.00
2013-10-6,88.8,71.4,54.2,36.5,30.4,25.3,36,22,13,30.18,30.02,6,3,9,0.00
2013-10-7,91.4,74.4,56.4,43.4,34.1,25.9,36,23,15,30.08,29.93,11,4,14,0.00
2013-10-8,88.7,74.7,60.5,42.6,36.5,31.3,40,25,16,29.97,29.81,8,3,11,0.00
2013-10-9,86.8,76.5,68.8,47.8,41.0,32.9,43,28,19,29.85,29.68,14,8,19,0.00
2013-10-10,69.4,61.7,54.3,50.0,46.3,41.9,75,57,36,30.00,29.78,12,5,15,0.00
2013-10-11,76.5,62.7,49.7,46.9,41.5,37.0,69,47,28,30.03,29.93,7,3,10,0.00
2013-10-12,85.3,67.8,51.1,43.6,39.2,34.8,56,36,20,30.00,29.88,7,3,10,0.00
2013-10-13,85.7,70.6,55.8,49.0,41.5,36.8,56,36,20,30.03,29.91,10,4,15,0.00
2013-10-14,81.3,68.9,56.5,46.8,41.3,35.2,60,38,22,30.09,29.97,7,3,9,0.00
2013-10-15,80.9,67.5,54.5,43.7,36.2,30.6,50,32,19,30.01,29.90,7,3,10,0.00
2013-10-16,79.0,65.0,50.8,37.4,29.7,22.9,45,28,14,30.11,30.00,6,3,8,0.00
2013-10-17,79.8,64.1,48.2,36.0,29.8,25.7,49,28,15,30.10,29.94,6,3,9,0.00
2013-10-18,80.6,65.6,49.7,36.5,30.5,26.4,47,27,17,30.05,29.96,9,4,12,0.00
2013-10-19,84.5,66.9,50.2,34.9,27.2,21.6,38,23,12,30.09,29.96,8,3,10,0.00
2013-10-20,83.0,66.9,49.1,34.4,27.3,22.1,42,23,13,30.01,29.89,7,3,11,0.00
2013-10-21,83.4,67.5,49.7,35.0,27.9,23.2,42,23,13,30.04,29.96,8,3,11,0.00
2013-10-22,89.5,70.2,53.7,35.5,29.2,23.6,32,22,12,30.08,29.96,6,3,10,0.00
2013-10-23,91.0,73.0,55.7,39.8,33.7,27.3,40,24,15,30.00,29.89,9,3,11,0.00
2013-10-24,88.9,72.7,57.5,41.4,34.3,29.5,36,25,15,30.05,29.91,10,3,14,0.00
2013-10-25,84.4,69.8,54.4,42.1,34.4,29.0,44,27,17,30.12,30.04,9,3,11,0.00
2013-10-26,85.7,69.1,53.0,40.8,35.2,29.4,47,29,18,30.16,30.03,6,3,9,0.00
2013-10-27,88.3,71.1,56.9,43.5,35.6,30.8,44,28,15,30.05,29.82,9,3,11,0.00
2013-10-28,78.9,70.9,64.4,39.7,36.3,34.2,36,28,19,29.95,29.82,10,7,14,0.00
2013-10-29,79.2,68.8,56.7,41.0,37.5,35.1,48,32,22,29.97,29.84,14,7,18,0.00
2013-10-30,68.1,58.0,48.6,42.6,35.9,29.8,65,44,29,30.06,29.91,8,3,13,0.00
2013-10-31,72.9,58.4,43.6,35.1,30.0,25.7,56,35,20,30.14,30.02,8,3,11,0.00
2013-11-1,79.2,61.4,43.9,35.4,29.8,25.0,50,31,18,30.18,30.03,7,2,10,0.00
2013-11-2,85.6,67.7,48.7,43.4,29.0,23.0,42,25,14,30.08,29.89,9,4,14,0.00
2013-11-3,80.0,68.7,56.9,52.6,45.3,39.2,69,44,28,29.98,29.75,9,4,12,0.00
2013-11-4,78.1,64.8,53.2,53.3,44.8,36.6,72,49,30,29.88,29.72,10,4,12,0.09
2013-11-5,70.5,60.6,51.3,50.1,44.1,36.4,76,55,37,30.15,29.88,9,3,12,0.00
2013-11-6,74.8,61.1,49.9,35.6,26.8,18.3,45,27,17,30.27,30.14,10,5,12,0.00
2013-11-7,81.0,63.7,46.8,36.1,27.5,17.9,38,26,15,30.21,30.07,9,4,11,0.00
2013-11-8,81.8,66.6,50.9,41.7,35.4,29.4,46,32,20,30.12,29.99,6,3,9,0.00
2013-11-9,82.0,66.9,50.6,44.1,38.7,34.5,57,36,23,30.15,30.03,6,2,7,0.00
2013-11-10,84.8,67.7,51.9,44.2,38.7,34.2,52,35,21,30.17,30.03,6,2,8,0.00
2013-11-11,85.4,69.6,53.1,44.9,39.5,34.7,52,34,21,30.13,30.03,8,3,10,0.00
2013-11-12,85.4,71.7,57.4,48.2,41.7,35.3,45,34,21,30.23,30.09,8,4,12,0.00
2013-11-13,80.6,68.8,58.9,49.6,44.3,41.1,58,41,31,30.18,30.02,10,4,14,0.00
2013-11-14,80.7,66.5,54.1,47.5,42.8,39.2,60,43,26,30.06,29.86,7,3,9,0.00
2013-11-15,74.3,66.4,56.6,52.6,46.7,38.4,63,49,35,29.86,29.65,11,7,15,0.00
2013-11-16,72.5,64.1,56.4,50.5,46.2,39.8,77,53,33,29.93,29.72,10,4,14,0.00
2013-11-17,74.6,63.0,52.2,53.2,46.2,42.8,78,55,38,30.09,29.93,8,2,12,0.00
2013-11-18,77.5,64.7,52.6,48.6,44.9,40.7,65,49,33,30.12,30.00,6,3,8,0.00
2013-11-19,76.6,63.3,50.3,47.6,42.8,40.4,71,49,27,30.05,29.87,8,2,10,0.00
2013-11-20,73.0,61.1,52.1,44.4,41.4,39.1,64,49,31,29.92,29.82,9,2,11,0.00
2013-11-21,70.7,62.2,52.1,51.8,45.0,40.4,83,54,36,29.96,29.85,8,3,12,0.04
2013-11-22,64.5,53.6,46.4,54.4,49.3,45.0,95,85,62,29.97,29.79,11,5,16,1.27
2013-11-23,52.2,48.4,45.6,51.4,47.0,44.5,98,95,87,30.06,29.96,7,2,10,1.43
2013-11-24,61.5,49.9,42.7,50.7,42.6,36.0,94,76,58,30.15,30.03,7,3,10,0.00
2013-11-25,59.5,48.9,38.6,44.7,38.7,33.7,84,68,50,30.22,30.11,7,3,10,0.00
2013-11-26,67.9,53.1,40.1,46.7,37.1,33.1,84,57,30,30.27,30.13,5,2,7,0.00
2013-11-27,63.6,52.3,45.7,40.0,33.4,28.1,66,50,27,30.15,30.00,9,3,12,0.00
2013-11-28,71.9,55.3,40.7,39.6,34.3,29.3,64,46,28,30.11,29.69,5,3,8,0.00
2013-11-29,73.8,58.0,45.6,45.0,39.8,35.0,68,52,30,30.20,30.08,6,3,8,0.00
2013-11-30,69.0,56.9,47.9,48.4,43.9,39.4,75,62,46,30.19,30.07,5,2,7,0.00
2013-12-1,70.3,57.7,48.9,48.7,45.1,42.3,80,63,44,30.23,30.14,7,2,8,0.00
2013-12-2,69.8,55.6,44.3,47.4,41.7,38.8,82,61,38,30.18,29.92,5,2,7,0.00
2013-12-3,72.9,58.5,44.8,44.1,38.4,29.5,75,51,22,29.93,29.72,7,3,10,0.00
2013-12-4,52.1,47.6,45.2,42.3,41.2,40.0,87,78,66,29.92,29.87,6,2,8,0.22
2013-12-5,49.0,43.9,36.2,46.9,37.1,28.3,94,77,54,30.07,29.87,6,2,8,0.07
2013-12-6,54.0,41.8,32.0,35.5,26.9,24.4,78,57,36,30.17,30.05,6,3,8,0.00
2013-12-7,57.0,43.8,30.6,35.0,27.5,24.3,79,55,30,30.08,29.95,7,2,9,0.00
2013-12-8,55.0,48.3,43.9,40.5,36.8,29.9,72,64,56,30.12,29.99,6,2,10,0.00
2013-12-9,54.3,43.4,33.8,34.2,23.9,14.3,70,47,32,30.27,30.06,7,3,10,0.00
2013-12-10,58.8,44.8,33.9,26.6,20.7,15.9,53,39,27,30.25,30.08,9,4,10,0.00
2013-12-11,70.6,53.4,40.1,40.5,29.7,20.3,58,40,29,30.20,30.09,7,3,10,0.00
2013-12-12,70.4,54.7,44.9,43.5,35.9,30.5,63,49,35,30.18,30.05,13,4,15,0.00
2013-12-13,62.5,49.7,38.2,39.7,33.3,30.0,73,54,35,30.18,30.08,5,2,7,0.00
2013-12-14,64.0,49.8,37.3,38.4,30.5,24.9,71,49,30,30.29,30.16,6,3,8,0.00
2013-12-15,68.7,52.5,38.0,33.4,28.2,24.5,59,40,25,30.31,30.17,6,3,9,0.00
2013-12-16,72.9,56.3,42.0,38.2,30.5,25.8,53,38,24,30.23,30.14,7,3,8,0.00
2013-12-17,80.6,60.4,46.2,37.8,31.6,27.3,49,35,20,30.23,30.10,7,4,8,0.00
2013-12-18,75.8,60.2,49.0,38.9,32.8,27.0,43,35,23,30.11,29.84,8,3,9,0.00
2013-12-19,68.8,60.4,50.8,38.7,31.1,28.1,63,33,23,29.87,29.67,11,6,16,0.00
2013-12-20,53.1,46.7,43.0,44.6,40.1,37.2,90,78,63,29.81,29.61,11,3,15,0.38
2013-12-21,55.6,46.9,41.8,48.0,39.6,35.8,92,76,60,30.05,29.79,9,3,12,0.01
2013-12-22,58.9,47.7,37.7,46.4,37.7,33.6,87,69,46,30.27,30.05,6,2,7,0.00
2013-12-23,64.6,49.9,38.5,42.9,35.6,30.6,82,60,38,30.35,30.24,6,3,7,0.00
2013-12-24,67.2,51.2,37.6,36.8,31.3,26.7,66,48,30,30.24,30.11,6,3,8,0.00
2013-12-25,66.3,51.5,39.2,37.0,32.2,28.7,69,48,30,30.26,30.16,6,3,7,0.00
2013-12-26,67.2,51.4,39.6,37.8,29.2,25.6,62,44,23,30.22,30.11,5,3,6,0.00
2013-12-27,69.0,52.3,38.7,33.8,27.1,23.5,59,39,21,30.22,30.10,7,3,8,0.00
2013-12-28,63.7,49.0,36.7,31.6,26.9,22.5,57,43,26,30.13,29.95,5,2,8,0.00
2013-12-29,65.4,51.3,41.2,36.8,30.5,26.8,61,46,27,30.14,29.93,7,3,9,0.00
2013-12-30,65.8,51.6,38.7,33.7,29.2,23.9,57,43,27,30.28,30.14,6,3,9,0.00
2013-12-31,71.7,52.5,38.6,33.4,28.5,24.4,56,41,21,30.25,30.09,5,2,6,0.00
2014-1-1,69.4,53.4,39.4,36.2,31.2,26.7,60,44,25,30.18,30.07,7,3,8,0.00
2014-1-2,75.0,56.9,43.0,37.6,31.0,27.9,60,39,20,30.18,30.05,8,3,9,0.00